Regional Weather Roundup
Issued by NWS

Home | Current Version | Previous Version | Text Only | Print | Product List | Glossary On
Versions: 1 2 3 4 5 6 7 8 9 10 11 12 13 14 15 16 17 18 19 20 21 22 23 24 25 26 27 28 29 30 31 32 33 34 35 36 37 38 39 40 41 42 43 44 45 46 47 48 49 50
000
ASUS44 KBMX 270610
RWRAL

ALABAMA REGIONAL WEATHER ROUNDUP
NATIONAL WEATHER SERVICE BIRMINGHAM AL
1200 AM CST TUE JAN 27 2015

NOTE: "FAIR" INDICATES FEW OR NO CLOUDS BELOW 12,000 FEET
WITH NO SIGNIFICANT WEATHER AND/OR OBSTRUCTIONS TO VISIBILITY.

THE REMARK "TC" DENOTES TEMPERATURE IN DEGREES CELSIUS.

ALZ001>011-014-016>018-020-270700-
NORTH ALABAMA

CITY           SKY/WX    TMP DP  RH WIND       PRES   REMARKS
MUSCLE SHOALS  MOCLDY    38  30  73 CALM      29.95F
6HR MIN TEMP:  38; 6HR MAX TEMP:  45;

HUNTSVILLE     CLOUDY    39  35  86 CALM      29.94F
6HR MIN TEMP:  39; 6HR MAX TEMP:  42;

DECATUR        CLOUDY    41  31  67 SW3       29.95F
6HR MIN TEMP:  39; 6HR MAX TEMP:  42;

HALEYVILLE       N/A     29  28  96 CALM      29.97F
6HR MIN TEMP:  29; 6HR MAX TEMP:  39;

GADSDEN        CLOUDY    32  28  86 CALM      29.96F
6HR MIN TEMP:  30; 6HR MAX TEMP:  39;

$$

ALZ012-013-022-023-030>036-040>044-270700-
WEST CENTRAL ALABAMA

CITY           SKY/WX    TMP DP  RH WIND       PRES   REMARKS
TUSCALOOSA     CLEAR     34  31  88 CALM      30.01F
6HR MIN TEMP:  32; 6HR MAX TEMP:  46;

$$

ALZ015-024>027-033>036-040>044-270700-
CENTRAL ALABAMA

CITY           SKY/WX    TMP DP  RH WIND       PRES   REMARKS
BIRMINGHAM     CLOUDY    42  31  64 W8        30.00F
6HR MIN TEMP:  39; 6HR MAX TEMP:  43;

MONTGOMERY     CLEAR     37  31  78 CALM      30.02F
6HR MIN TEMP:  37; 6HR MAX TEMP:  46;

SHELBY CO ARPT MOCLDY    37  32  82 CALM      30.00S
6HR MIN TEMP:  36; 6HR MAX TEMP:  43;

MAXWELL AFB    CLEAR     37  33  82 W5        30.01S WCI  34
6HR MIN TEMP:  35; 6HR MAX TEMP:  45;

GREENVILLE     FAIR      39  31  72 W5        30.01R
6HR MIN TEMP:  34; 6HR MAX TEMP:  46;

$$

ALZ019-021-028-029-037-038-045>048-270700-
EAST CENTRAL ALABAMA

CITY           SKY/WX    TMP DP  RH WIND       PRES   REMARKS
ANNISTON       CLEAR     33  30  88 SW5       29.96F WCI  29
6HR MIN TEMP:  32; 6HR MAX TEMP:  42;

ALEXANDER CITY CLOUDY    37  31  79 CALM      29.98F
6HR MIN TEMP:  33; 6HR MAX TEMP:  42;

AUBURN         MOCLDY    36  27  69 W6        29.99F WCI  31
6HR MIN TEMP:  34; 6HR MAX TEMP:  37;

$$

ALZ051>064-270700-
SOUTHWEST ALABAMA

CITY           SKY/WX    TMP DP  RH WIND       PRES   REMARKS
MOBILE         CLEAR     41  32  70 W6        30.07R
6HR MIN TEMP:  37; 6HR MAX TEMP:  49;

BROOKLEY FIELD CLEAR     43  35  73 CALM      30.07R
6HR MIN TEMP:  39; 6HR MAX TEMP:  50;

EVERGREEN      CLEAR     33  31  92 CALM      30.04S
6HR MIN TEMP:  33; 6HR MAX TEMP:  45;

$$

ALZ049-050-065>069-270700-
SOUTHEAST ALABAMA

CITY           SKY/WX    TMP DP  RH WIND       PRES   REMARKS
DOTHAN         CLOUDY    42  33  70 W10       30.04R
6HR MIN TEMP:  38; 6HR MAX TEMP:  45;

OZARK          CLEAR     37  32  83 W5        30.02R WCI  33
6HR MIN TEMP:  35; 6HR MAX TEMP:  45;

TROY           CLEAR     35  29  78 CALM      30.02R
6HR MIN TEMP:  35; 6HR MAX TEMP:  64;

EUFAULA        FAIR      31  28  89 W5        30.00R WCI  26
6HR MIN TEMP:  29; 6HR MAX TEMP:  43; 6HR PCP: TRACE;

$$


USA.gov is the U.S. government's official web portal to all federal, state and local government web resources and services.